Regional Weather Roundup
Issued by NWS

Home | Current Version | Previous Version | Text Only | Print | Product List | Glossary On
Versions: 1 2 3 4 5 6 7 8 9 10 11 12 13 14 15 16 17 18 19 20 21 22 23 24 25 26 27 28 29 30 31
000
ASUS42 KFFC 281810
RWRGA
WEATHER ROUNDUP FOR GEORGIA
NATIONAL WEATHER SERVICE PEACHTREE CITY GA
200 PM EDT WED SEP 28 2016

NOTE: "FAIR" INDICATES FEW OR NO CLOUDS BELOW 12,000 FEET WITH NO
SIGNIFICANT WEATHER AND/OR OBSTRUCTIONS TO VISIBILITY.

* = USE WITH CAUTION. THE STATIONS MARKED WITH AN ASTERISK MAY NOT
REPORT WEATHER SUCH AS PRECIPITATION, FOG, OR THUNDER AND ARE NOT
QUALITY CONTROLLED BY NWS.

THE REMARK "TC" DENOTES TEMPERATURE READING IN DEGREES CELSIUS.

GAZ001>058-281900-
NORTH GEORGIA

CITY           SKY/WX    TMP DP  RH WIND       PRES   REMARKS
ATLANTA        MOSUNNY   84  54  35 W6        29.96F
6HR MIN TEMP:  67; 6HR MAX TEMP:  84;

ATHENS         SUNNY     88  61  40 W7        29.93F
6HR MIN TEMP:  67; 6HR MAX TEMP:  89;

CHAMBLEE       SUNNY     82  52  35 W12G18    29.96F
6HR MIN TEMP:  66; 6HR MAX TEMP:  83;

PEACHTREE CITY SUNNY     83  56  39 VRB6      29.97F
6HR MIN TEMP:  64; 6HR MAX TEMP:  83;

ROME           SUNNY     83  42  23 VRB7      29.93F
6HR MIN TEMP:  56; 6HR MAX TEMP:  83;

WEST ATLANTA   SUNNY     81  52  36 VRB3      29.95F
6HR MIN TEMP:  64; 6HR MAX TEMP:  82;

GAINESVILLE      N/A     82  48  30 SW12      29.97F
6HR MIN TEMP:  67; 6HR MAX TEMP:  82;

CARTERSVILLE   SUNNY     83  44  25 VRB3      29.94F
6HR MIN TEMP:  60; 6HR MAX TEMP:  83;



CITY           SKY/WX    TMP DP  RH WIND       PRES   REMARKS
DALTON*        SUNNY     81  41  24 CALM      29.94F
LAWRENCEVILLE* SUNNY     84  50  30 W9        29.95F
MARIETTA       MOSUNNY   82  54  39 SW9       29.96F
KENNESAW*      SUNNY     81  50  34 NW9       29.92F
CANTON*        SUNNY     81  23  12 SW10      29.97F
BLAIRSVILLE*     N/A    N/A N/A N/A MISG      29.97F
$$

GAZ059>098-102>109-281900-
CENTRAL GEORGIA

CITY           SKY/WX    TMP DP  RH WIND       PRES   REMARKS
AUGUSTA-BUSH   MOSUNNY   90  68  48 SW12G23   29.90F HX  94
6HR MIN TEMP:  69; 6HR MAX TEMP:  91;

AUGUSTA-DANIEL MOSUNNY   91  65  41 SW13G18   29.92F HX  93
6HR MIN TEMP:  71; 6HR MAX TEMP:  92;

COLUMBUS       SUNNY     88  60  38 SW5       29.93F
6HR MIN TEMP:  70; 6HR MAX TEMP:  89;

MACON          MOSUNNY   90  64  42 SW8       29.93F HX  91
6HR MIN TEMP:  69; 6HR MAX TEMP:  93;

ROBINS AFB     MOSUNNY   91  65  42 W10G22    29.92F HX  94


CITY           SKY/WX    TMP DP  RH WIND       PRES   REMARKS
LAGRANGE*      SUNNY     89  62  40 W14       29.95F
MILLEDGEVILLE* MOSUNNY   90  70  51 CALM      29.92F HX  95
$$

GAZ099>101-110>166-281900-
SOUTH GEORGIA

CITY           SKY/WX    TMP DP  RH WIND       PRES   REMARKS
SAVANNAH       PTSUNNY   90  68  48 S9        29.95F HX  94
6HR MIN TEMP:  73; 6HR MAX TEMP:  90;

VALDOSTA       PTSUNNY   90  71  53 VRB6      29.96F HX  96
6HR MIN TEMP:  69; 6HR MAX TEMP:  91;

ALMA           MOSUNNY   88  69  53 SW7G18    29.95F HX  92
6HR MIN TEMP:  68; 6HR MAX TEMP:  89;

ST SIMONS      MOSUNNY   86  72  62 S9        29.96F HX  92
6HR MIN TEMP:  74; 6HR MAX TEMP:  88;

FT STEWART     MOSUNNY   89  69  51 S5        29.93F HX  93
ALBANY         PTSUNNY   90  70  51 VRB7      29.96F HX  95
HUNTER AFB     MOSUNNY   88  78  72 S8        29.93F HX 101
MOODY AFB      MOSUNNY   89  67  49 VRB3      29.94F HX  92
BRUNSWICK      MOSUNNY   88  72  58 S10       29.97F HX  94


CITY           SKY/WX    TMP DP  RH WIND       PRES   REMARKS
BAINBRIDGE*    CLOUDY    91  73  55 W8        29.95F HX 100
MOULTRIE*      SUNNY     86  70  58 W8        29.97F HX  90
VIDALIA*       MOSUNNY   90  72  55 SW7       29.94F HX  96
WAYCROSS*      MOSUNNY   91  72  53 W9        29.96F HX  99
DOUGLAS*       PTSUNNY   86  68  54 W7        29.97F
$$




USA.gov is the U.S. government's official web portal to all federal, state and local government web resources and services.